UPS5567 KMSP-KSDF

Flight info

Callsign UPS5567
Flight time N/A
Altitude 37000
Route ZMBRO7 ODI J30 JOT CYBIL JMONY2
Aircraft MD11/H-SDE1E2E3FGHIJ2J3J4J5M1RWXY/LB1D1

Departure

Time 2026-05-01 08:17
Airport Minneapolis–Saint Paul International Airport / Wold–Chamberlain Field (KMSP)

Arrival

Time N/A
Airport Louisville Muhammad Ali International Airport (KSDF)
Time Latitude Longitude Altitude Speed Heading
2026-05-01 07:37 44.88271 -93.23407 832 ft 0 kts 31°
2026-05-01 07:59 44.88234 -93.23440 823 ft 4 kts 32°
2026-05-01 08:00 44.88232 -93.23513 826 ft 0 kts 121°
2026-05-01 08:04 44.88225 -93.23497 832 ft 3 kts 122°
2026-05-01 08:05 44.88201 -93.23443 827 ft 4 kts 121°
2026-05-01 08:05 44.88184 -93.23403 824 ft 5 kts 121°
2026-05-01 08:05 44.88167 -93.23364 826 ft 4 kts 121°
2026-05-01 08:06 44.88115 -93.23245 825 ft 10 kts 122°
2026-05-01 08:06 44.88051 -93.23097 829 ft 8 kts 121°
2026-05-01 08:07 44.88010 -93.22969 825 ft 5 kts 90°
2026-05-01 08:07 44.88055 -93.22883 828 ft 10 kts 45°
2026-05-01 08:08 44.88104 -93.22813 826 ft 10 kts 44°
2026-05-01 08:08 44.88192 -93.22695 829 ft 7 kts 45°
2026-05-01 08:09 44.88264 -93.22592 828 ft 7 kts 56°
2026-05-01 08:09 44.88268 -93.22543 832 ft 3 kts 101°
2026-05-01 08:09 44.88252 -93.22488 824 ft 9 kts 115°
2026-05-01 08:10 44.88200 -93.22363 828 ft 6 kts 126°
2026-05-01 08:10 44.88120 -93.22197 828 ft 13 kts 121°
2026-05-01 08:11 44.88039 -93.22004 828 ft 11 kts 122°
2026-05-01 08:11 44.87941 -93.21780 825 ft 15 kts 121°
2026-05-01 08:12 44.87840 -93.21548 832 ft 13 kts 122°
2026-05-01 08:12 44.87796 -93.21447 825 ft 12 kts 121°
2026-05-01 08:12 44.87708 -93.21242 829 ft 13 kts 120°
2026-05-01 08:13 44.87655 -93.21117 825 ft 17 kts 122°
2026-05-01 08:13 44.87590 -93.20968 828 ft 18 kts 121°
2026-05-01 08:13 44.87457 -93.20696 832 ft 15 kts 139°
2026-05-01 08:14 44.87386 -93.20622 829 ft 12 kts 136°
2026-05-01 08:14 44.87339 -93.20538 829 ft 10 kts 123°
2026-05-01 08:14 44.87305 -93.20460 825 ft 10 kts 122°
2026-05-01 08:14 44.87265 -93.20368 827 ft 11 kts 121°
2026-05-01 08:15 44.87237 -93.20284 829 ft 5 kts 105°
2026-05-01 08:15 44.87297 -93.20185 829 ft 11 kts 28°
2026-05-01 08:15 44.87360 -93.20159 827 ft 7 kts 353°
2026-05-01 08:16 44.87376 -93.20178 829 ft 6 kts 313°
2026-05-01 08:16 44.87386 -93.20199 828 ft 0 kts 302°
2026-05-01 08:16 44.87430 -93.20298 825 ft 46 kts 302°
2026-05-01 08:16 44.87764 -93.21068 828 ft 133 kts 301°
2026-05-01 08:17 44.88334 -93.22406 1105 ft 168 kts 302°
2026-05-01 08:17 44.88878 -93.23824 1923 ft 169 kts 288°
2026-05-01 08:17 44.88780 -93.25428 2593 ft 164 kts 241°
2026-05-01 08:17 44.87949 -93.26561 3464 ft 167 kts 215°
2026-05-01 08:18 44.87199 -93.27773 4122 ft 176 kts 251°
2026-05-01 08:18 44.86534 -93.31660 4704 ft 244 kts 256°
2026-05-01 08:19 44.84164 -93.34877 6442 ft 269 kts 198°
2026-05-01 08:19 44.82173 -93.35041 7566 ft 278 kts 170°
2026-05-01 08:19 44.80392 -93.33976 8549 ft 286 kts 143°
2026-05-01 08:19 44.79037 -93.31915 9521 ft 291 kts 123°
2026-05-01 08:20 44.77950 -93.29464 10329 ft 304 kts 119°
2026-05-01 08:20 44.76814 -93.26755 10481 ft 339 kts 119°
2026-05-01 08:20 44.75570 -93.23765 10827 ft 364 kts 119°
2026-05-01 08:20 44.74288 -93.20687 11756 ft 369 kts 119°
2026-05-01 08:21 44.72979 -93.17545 12704 ft 373 kts 119°
2026-05-01 08:21 44.71865 -93.14874 13494 ft 377 kts 119°
2026-05-01 08:21 44.70545 -93.11718 14318 ft 382 kts 119°
2026-05-01 08:21 44.69170 -93.08428 15080 ft 387 kts 119°
2026-05-01 08:22 44.67818 -93.05197 15813 ft 392 kts 119°
2026-05-01 08:22 44.66428 -93.01877 16550 ft 397 kts 119°
2026-05-01 08:22 44.65024 -92.98526 17284 ft 402 kts 119°
2026-05-01 08:22 44.63689 -92.95470 17901 ft 408 kts 123°
2026-05-01 08:23 44.62146 -92.92501 18542 ft 412 kts 128°
2026-05-01 08:23 44.60229 -92.89465 19125 ft 417 kts 134°
2026-05-01 08:23 44.58136 -92.86628 19713 ft 421 kts 137°
2026-05-01 08:23 44.56063 -92.84072 20253 ft 425 kts 139°
2026-05-01 08:24 44.53778 -92.81397 20821 ft 430 kts 140°
2026-05-01 08:24 44.51730 -92.79057 21327 ft 433 kts 141°
2026-05-01 08:24 44.49369 -92.76382 21924 ft 438 kts 141°
2026-05-01 08:24 44.47018 -92.73657 22450 ft 442 kts 136°
2026-05-01 08:25 44.44998 -92.70406 23065 ft 445 kts 125°
2026-05-01 08:25 44.43283 -92.66777 23651 ft 449 kts 120°
2026-05-01 08:25 44.41702 -92.62993 24177 ft 453 kts 118°
2026-05-01 08:25 44.40147 -92.59142 24737 ft 456 kts 118°
2026-05-01 08:26 44.38574 -92.55275 25299 ft 460 kts 118°
2026-05-01 08:26 44.36986 -92.51441 25855 ft 464 kts 119°
2026-05-01 08:26 44.35422 -92.47728 26388 ft 467 kts 119°
2026-05-01 08:26 44.33749 -92.43812 26943 ft 471 kts 120°
2026-05-01 08:27 44.32051 -92.39870 27477 ft 475 kts 120°
2026-05-01 08:27 44.30338 -92.35908 28038 ft 479 kts 120°
2026-05-01 08:27 44.28629 -92.31960 28548 ft 483 kts 120°
2026-05-01 08:27 44.26867 -92.27888 29080 ft 487 kts 120°
2026-05-01 08:28 44.25105 -92.23818 29614 ft 491 kts 120°
2026-05-01 08:28 44.23336 -92.19736 30101 ft 495 kts 120°
2026-05-01 08:28 44.21550 -92.15617 30491 ft 498 kts 120°
2026-05-01 08:28 44.19755 -92.11485 30917 ft 500 kts 120°
2026-05-01 08:29 44.17947 -92.07328 31367 ft 502 kts 120°
2026-05-01 08:29 44.16154 -92.03211 31800 ft 504 kts 121°
2026-05-01 08:29 44.14359 -91.99094 32231 ft 505 kts 121°
2026-05-01 08:29 44.12528 -91.94902 32645 ft 507 kts 121°
2026-05-01 08:30 44.10692 -91.90706 33060 ft 508 kts 121°
2026-05-01 08:30 44.08904 -91.86625 33447 ft 510 kts 121°
2026-05-01 08:30 44.07052 -91.82403 33846 ft 511 kts 122°
2026-05-01 08:30 44.05198 -91.78183 34220 ft 512 kts 122°
2026-05-01 08:31 44.03342 -91.73964 34552 ft 513 kts 122°
2026-05-01 08:31 44.01559 -91.69917 34875 ft 513 kts 122°
2026-05-01 08:31 43.99689 -91.65680 35190 ft 513 kts 122°
2026-05-01 08:31 43.97828 -91.61469 35536 ft 513 kts 122°
2026-05-01 08:32 43.95956 -91.57237 35862 ft 513 kts 122°
2026-05-01 08:32 43.94089 -91.53025 36163 ft 513 kts 122°
2026-05-01 08:32 43.92228 -91.48862 36452 ft 513 kts 124°
2026-05-01 08:32 43.90094 -91.44909 36764 ft 512 kts 132°
2026-05-01 08:33 43.87698 -91.41265 36934 ft 512 kts 136°
2026-05-01 08:33 43.82609 -91.34349 36976 ft 513 kts 138°
2026-05-01 08:34 43.77487 -91.27442 36981 ft 514 kts 137°
2026-05-01 08:34 43.72422 -91.20447 36981 ft 515 kts 137°
2026-05-01 08:35 43.67411 -91.13468 36994 ft 515 kts 137°
2026-05-01 08:35 43.62369 -91.06459 36981 ft 515 kts 137°
2026-05-01 08:36 43.57335 -90.99490 36993 ft 516 kts 137°
2026-05-01 08:36 43.52269 -90.92497 36979 ft 516 kts 137°
2026-05-01 08:37 43.47188 -90.85501 36993 ft 516 kts 137°
2026-05-01 08:37 43.42148 -90.78579 36991 ft 517 kts 137°
2026-05-01 08:38 43.37054 -90.71601 36979 ft 517 kts 137°
2026-05-01 08:38 43.31960 -90.64639 36980 ft 517 kts 138°
2026-05-01 08:39 43.26893 -90.57705 36964 ft 517 kts 137°
2026-05-01 08:39 43.21851 -90.50767 36973 ft 518 kts 137°
2026-05-01 08:40 43.14230 -90.40280 36964 ft 518 kts 138°
2026-05-01 08:40 43.09113 -90.33331 36960 ft 518 kts 138°
2026-05-01 08:41 43.04006 -90.26438 36955 ft 518 kts 138°